TimeCDT,TemperatureF,Dew PointF,Humidity,Sea Level PressureIn,VisibilityMPH,Wind Direction,Wind SpeedMPH,Gust SpeedMPH,PrecipitationIn,Events,Conditions,WindDirDegrees,DateUTC
12:53 AM,66.0,64.0,93,29.88,10.0,West,3.5,-,N/A,,Clear,260,2013-08-02 05:53:00
1:53 AM,64.9,64.0,97,29.88,10.0,WSW,5.8,-,N/A,,Clear,240,2013-08-02 06:53:00
2:53 AM,64.9,64.0,97,29.88,10.0,WNW,3.5,-,N/A,,Clear,300,2013-08-02 07:53:00
3:53 AM,64.0,63.0,96,29.88,10.0,West,5.8,-,N/A,,Clear,260,2013-08-02 08:53:00
4:53 AM,64.0,63.0,96,29.88,10.0,SW,4.6,-,N/A,,Clear,230,2013-08-02 09:53:00
5:53 AM,63.0,63.0,100,29.90,10.0,Calm,Calm,-,N/A,,Partly Cloudy,0,2013-08-02 10:53:00
6:53 AM,63.0,63.0,100,29.89,10.0,WSW,3.5,-,N/A,,Clear,250,2013-08-02 11:53:00
7:53 AM,66.9,64.9,93,29.90,6.0,Calm,Calm,-,N/A,,Clear,0,2013-08-02 12:53:00
8:53 AM,71.1,66.0,84,29.90,10.0,WNW,3.5,-,N/A,,Clear,300,2013-08-02 13:53:00
9:53 AM,75.9,64.0,67,29.90,10.0,ENE,3.5,-,N/A,,Partly Cloudy,60,2013-08-02 14:53:00
10:53 AM,78.1,62.1,58,29.90,10.0,NE,8.1,-,N/A,,Clear,40,2013-08-02 15:53:00
11:53 AM,80.1,61.0,52,29.90,10.0,ENE,6.9,-,N/A,,Clear,60,2013-08-02 16:53:00
12:53 PM,80.1,60.1,50,29.92,10.0,Variable,3.5,-,N/A,,Partly Cloudy,0,2013-08-02 17:53:00
1:53 PM,80.1,61.0,52,29.91,10.0,NNE,6.9,-,N/A,,Mostly Cloudy,30,2013-08-02 18:53:00
2:53 PM,79.0,62.1,56,29.91,10.0,North,11.5,-,N/A,,Mostly Cloudy,10,2013-08-02 19:53:00
3:53 PM,75.0,63.0,66,29.93,10.0,North,9.2,-,N/A,,Overcast,360,2013-08-02 20:53:00
4:53 PM,69.1,63.0,81,29.97,6.0,NW,10.4,-,0.01,Rain,Light Rain,320,2013-08-02 21:53:00
5:53 PM,68.0,62.1,81,29.97,10.0,NW,5.8,-,0.03,Rain,Light Rain,320,2013-08-02 22:53:00
6:53 PM,66.9,64.9,93,29.96,10.0,North,5.8,-,0.02,Rain,Light Rain,10,2013-08-02 23:53:00
7:53 PM,66.9,66.0,97,29.95,10.0,North,5.8,-,0.01,,Partly Cloudy,10,2013-08-03 00:53:00
8:53 PM,64.9,64.0,97,29.97,10.0,North,6.9,-,N/A,,Clear,350,2013-08-03 01:53:00
9:53 PM,64.9,64.0,97,29.99,10.0,NW,4.6,-,N/A,,Overcast,320,2013-08-03 02:53:00
10:53 PM,64.9,64.0,97,30.00,10.0,NNW,5.8,-,N/A,,Overcast,330,2013-08-03 03:53:00
11:53 PM,64.0,63.0,96,30.01,10.0,NNW,6.9,-,N/A,,Overcast,340,2013-08-03 04:53:00